TimeEST,TemperatureF,Dew PointF,Humidity,Sea Level PressureIn,VisibilityMPH,Wind Direction,Wind SpeedMPH,Gust SpeedMPH,PrecipitationIn,Events,Conditions,WindDirDegrees,DateUTC
12:51 AM,41.0,26.1,55,30.08,10.0,WSW,5.8,-,N/A,,Clear,240,2013-02-12 05:51:00
1:51 AM,41.0,25.0,53,30.08,10.0,WSW,6.9,-,N/A,,Clear,240,2013-02-12 06:51:00
2:51 AM,39.0,25.0,57,30.10,10.0,SW,4.6,-,N/A,,Clear,220,2013-02-12 07:51:00
3:51 AM,37.9,25.0,60,30.10,10.0,SW,4.6,-,N/A,,Clear,220,2013-02-12 08:51:00
4:51 AM,37.0,25.0,62,30.10,10.0,SW,4.6,-,N/A,,Clear,230,2013-02-12 09:51:00
5:51 AM,35.1,25.0,67,30.12,10.0,SW,3.5,-,N/A,,Clear,220,2013-02-12 10:51:00
6:51 AM,34.0,25.0,70,30.13,10.0,SW,5.8,-,N/A,,Clear,230,2013-02-12 11:51:00
7:51 AM,34.0,26.1,73,30.15,10.0,SW,5.8,-,N/A,,Clear,220,2013-02-12 12:51:00
8:51 AM,39.0,26.1,60,30.16,10.0,WSW,6.9,-,N/A,,Clear,250,2013-02-12 13:51:00
9:51 AM,42.1,26.1,53,30.16,10.0,SW,9.2,-,N/A,,Clear,230,2013-02-12 14:51:00
10:51 AM,44.1,24.1,45,30.15,10.0,WSW,4.6,-,N/A,,Clear,240,2013-02-12 15:51:00
11:51 AM,46.9,24.1,41,30.12,10.0,NW,3.5,-,N/A,,Clear,320,2013-02-12 16:51:00
12:51 PM,50.0,24.1,36,30.01,10.0,NNW,5.8,-,N/A,,Clear,340,2013-02-12 17:51:00
1:51 PM,51.1,23.0,33,30.09,10.0,WSW,10.4,19.6,N/A,,Clear,240,2013-02-12 18:51:00
2:51 PM,52.0,21.9,31,30.05,10.0,Variable,6.9,16.1,N/A,,Clear,0,2013-02-12 19:51:00
3:51 PM,51.1,21.0,31,30.05,8.0,WSW,8.1,-,N/A,,Clear,250,2013-02-12 20:51:00
4:51 PM,50.0,21.0,32,30.02,10.0,WSW,5.8,-,N/A,,Clear,240,2013-02-12 21:51:00
5:51 PM,48.9,19.9,32,30.00,10.0,West,3.5,-,N/A,,Clear,260,2013-02-12 22:51:00
6:51 PM,46.9,19.9,34,29.97,10.0,Calm,Calm,-,N/A,,Clear,0,2013-02-12 23:51:00
7:51 PM,45.0,21.0,39,29.96,10.0,Calm,Calm,-,N/A,,Clear,0,2013-02-13 00:51:00
8:51 PM,42.1,23.0,47,29.97,10.0,Calm,Calm,-,N/A,,Clear,0,2013-02-13 01:51:00
9:51 PM,41.0,21.9,47,29.96,10.0,Calm,Calm,-,N/A,,Clear,0,2013-02-13 02:51:00
10:51 PM,39.0,21.0,49,29.94,10.0,Calm,Calm,-,N/A,,Clear,0,2013-02-13 03:51:00
11:51 PM,36.0,24.1,62,29.92,10.0,Calm,Calm,-,N/A,,Clear,0,2013-02-13 04:51:00